カタログに戻る

STARLINK-32596

運用中通信VLEO
NORAD 62316·PAYLOAD·🇺🇸 United States

打ち上げ Dec 13, 2024 から Vandenberg Space Force Base

Loading…

次のパス (今後24時間)

TLE

最新Source: CelesTrak SupGP

元期: Sep 15, 2026, 02:12 UTC

1 62316C 24239R   26258.09215278 -.00002319  00000+0 -68516-4 0  2589
2 62316  53.1602  30.6879 0001056  78.8915 197.9061 15.34389854    14

AllMySatでSTARLINK-32596をリアルタイム追跡

Download on the App Store